Bluffton, MN

12:15 PM CST on February 07, 2016 (GMT -0600)
Wadena Municipal

Weather History for KADC - June, 2013

Change the Weather History Date:

Saturday, June 29, 2013

  Actual Average Record
Temperature  
Mean Temperature 66 °F -  
Max Temperature 75 °F 76 °F 93 °F (1961)
Min Temperature 55 °F 54 °F 39 °F (2007)
Cooling Degree Days 1    
Growing Degree Days 16 (Base 50)    
Moisture  
Dew Point 54 °F    
Average Humidity 67    
Maximum Humidity 88    
Minimum Humidity 44    
Precipitation  
Precipitation 0.00 in - - ()
Sea Level Pressure  
Sea Level Pressure 29.96 in    
Wind  
Wind Speed 9 mph (North)    
Max Wind Speed 20 mph    
Max Gust Speed 25 mph    
Visibility 10 miles    
Events      
Averages and records for this station are not official NWS values.
T = Trace of Precipitation, MM = Missing Value Source: NWS Daily Summary

Daily Weather History Graph

Daily Weather History Graph

Search for Another Location

Airport or City:

Trip Planner

Search our weather history database for the weather conditions in past years. The results will help you decide how hot, cold, wet, or windy it might be!

Date:

Astronomy

Jun. 29, 2013 Rise Set
Actual Time 5:31 AM CDT 9:17 PM CDT
Civil Twilight 4:52 AM CDT 9:56 PM CDT
Nautical Twilight 3:59 AM CDT 10:48 PM CDT
Astronomical Twilight 2:44 AM CDT 12:03 AM CDT
Moon 12:21 AM CDT (6/29) 1:11 PM CDT (6/29)
Length of Visible Light 17h 04m
Length of Day
15h 46m
Waning Gibbous, 55% of the Moon is Illuminated
Jun 29
Waning Gibbous
Jun 29
Last Quarter
Jul 8
New
Jul 15
First Quarter
Jul 22
Full

Hourly Weather History & Observations

Time (CDT) Temp. Dew Point Humidity Pressure Visibility Wind Dir Wind Speed Gust Speed Precip Events Conditions
12:15 AM 62.6 °F 57.2 °F 82% 29.87 in 10.0 mi NNW 8.1 mph - N/A   Clear
12:35 AM 60.8 °F 57.2 °F 88% 29.87 in 10.0 mi NNW 9.2 mph - N/A   Clear
12:52 AM 60.8 °F 57.2 °F 88% 29.87 in 10.0 mi NNW 8.1 mph - N/A   Clear
1:15 AM 60.8 °F 57.2 °F 88% 29.87 in 10.0 mi NW 9.2 mph - N/A   Clear
1:35 AM 60.8 °F 57.2 °F 88% 29.87 in 10.0 mi NNW 8.1 mph - N/A   Clear
1:53 AM 60.8 °F 57.2 °F 88% 29.87 in 10.0 mi NNW 10.4 mph - N/A   Scattered Clouds
2:14 AM 60.8 °F 57.2 °F 88% 29.87 in 10.0 mi NNW 9.2 mph - N/A   Mostly Cloudy
2:35 AM 60.8 °F 57.2 °F 88% 29.87 in 10.0 mi North 10.4 mph - N/A   Mostly Cloudy
2:53 AM 60.8 °F 57.2 °F 88% 29.87 in 10.0 mi NNW 9.2 mph - N/A   Scattered Clouds
3:15 AM 60.8 °F 55.4 °F 82% 29.87 in 10.0 mi NNW 8.1 mph - N/A   Clear
3:35 AM 60.8 °F 55.4 °F 82% 29.87 in 10.0 mi NNW 6.9 mph - N/A   Clear
3:53 AM 60.8 °F 55.4 °F 82% 29.88 in 10.0 mi NNW 8.1 mph - N/A   Mostly Cloudy
4:14 AM 59.0 °F 55.4 °F 88% 29.89 in 10.0 mi NNW 6.9 mph - N/A   Overcast
4:34 AM 59.0 °F 55.4 °F 88% 29.89 in 10.0 mi North 10.4 mph - N/A   Overcast
4:53 AM 59.0 °F 55.4 °F 88% 29.90 in 10.0 mi North 12.7 mph - N/A   Overcast
5:15 AM 59.0 °F 55.4 °F 88% 29.91 in 10.0 mi North 8.1 mph - N/A   Overcast
5:35 AM 59.0 °F 55.4 °F 88% 29.91 in 10.0 mi North 8.1 mph - N/A   Overcast
5:52 AM 59.0 °F 55.4 °F 88% 29.91 in 10.0 mi North 9.2 mph - N/A   Overcast
6:15 AM 60.8 °F 55.4 °F 82% 29.92 in 10.0 mi North 10.4 mph - N/A   Overcast
6:35 AM 60.8 °F 55.4 °F 82% 29.92 in 10.0 mi North 9.2 mph - N/A   Overcast
6:52 AM 60.8 °F 55.4 °F 82% 29.93 in 10.0 mi North 10.4 mph - N/A   Overcast
7:15 AM 60.8 °F 55.4 °F 82% 29.94 in 10.0 mi North 10.4 mph 17.3 mph N/A   Mostly Cloudy
7:35 AM 60.8 °F 55.4 °F 82% 29.94 in 10.0 mi North 10.4 mph 17.3 mph N/A   Mostly Cloudy
7:53 AM 60.8 °F 55.4 °F 82% 29.95 in 10.0 mi North 10.4 mph - N/A   Overcast
8:15 AM 62.6 °F 55.4 °F 77% 29.95 in 10.0 mi North 9.2 mph - N/A   Mostly Cloudy
8:34 AM 64.4 °F 55.4 °F 73% 29.95 in 10.0 mi North 9.2 mph - N/A   Clear
8:53 AM 64.4 °F 55.4 °F 73% 29.95 in 10.0 mi North 13.8 mph 17.3 mph N/A   Clear
9:14 AM 66.2 °F 55.4 °F 68% 29.95 in 10.0 mi North 9.2 mph 17.3 mph N/A   Clear
9:35 AM 66.2 °F 55.4 °F 68% 29.96 in 10.0 mi North 11.5 mph - N/A   Clear
9:52 AM 68.0 °F 55.4 °F 64% 29.95 in 10.0 mi North 11.5 mph - N/A   Clear
10:15 AM 68.0 °F 55.4 °F 64% 29.95 in 10.0 mi North 11.5 mph 16.1 mph N/A   Clear
10:35 AM 69.8 °F 57.2 °F 64% 29.95 in 10.0 mi NNW 10.4 mph - N/A   Clear
10:53 AM 69.8 °F 57.2 °F 64% 29.96 in 10.0 mi North 10.4 mph - N/A   Clear
11:15 AM 71.6 °F 57.2 °F 60% 29.96 in 10.0 mi NNW 10.4 mph - N/A   Clear
11:34 AM 71.6 °F 57.2 °F 60% 29.96 in 10.0 mi NNW 11.5 mph 17.3 mph N/A   Clear
11:53 AM 71.6 °F 55.4 °F 57% 29.97 in 10.0 mi North 12.7 mph 18.4 mph N/A   Scattered Clouds
12:15 PM 71.6 °F 55.4 °F 57% 29.97 in 10.0 mi North 11.5 mph - N/A   Scattered Clouds
12:35 PM 73.4 °F 55.4 °F 53% 29.97 in 10.0 mi NNE 10.4 mph - N/A   Scattered Clouds
12:53 PM 73.4 °F 55.4 °F 53% 29.97 in 10.0 mi NNE 12.7 mph 17.3 mph N/A   Scattered Clouds
1:14 PM 73.4 °F 53.6 °F 50% 29.97 in 10.0 mi North 12.7 mph 17.3 mph N/A   Scattered Clouds
1:35 PM 75.2 °F 53.6 °F 47% 29.98 in 10.0 mi North 16.1 mph 21.9 mph N/A   Scattered Clouds
1:53 PM 73.4 °F 51.8 °F 47% 29.97 in 10.0 mi North 12.7 mph 20.7 mph N/A   Scattered Clouds
2:15 PM 73.4 °F 53.6 °F 50% 29.97 in 10.0 mi North 12.7 mph 17.3 mph N/A   Scattered Clouds
2:34 PM 75.2 °F 53.6 °F 47% 29.97 in 10.0 mi NNE 13.8 mph 17.3 mph N/A   Scattered Clouds
2:53 PM 75.2 °F 51.8 °F 44% 29.97 in 10.0 mi North 15.0 mph 19.6 mph N/A   Scattered Clouds
3:15 PM 75.2 °F 51.8 °F 44% 29.97 in 10.0 mi North 10.4 mph 19.6 mph N/A   Scattered Clouds
3:35 PM 75.2 °F 53.6 °F 47% 29.98 in 10.0 mi NNE 19.6 mph 25.3 mph N/A   Scattered Clouds
3:53 PM 75.2 °F 53.6 °F 47% 29.97 in 10.0 mi NNE 15.0 mph 19.6 mph N/A   Scattered Clouds
4:15 PM 75.2 °F 51.8 °F 44% 29.98 in 10.0 mi NNE 15.0 mph - N/A   Clear
4:35 PM 75.2 °F 51.8 °F 44% 29.98 in 10.0 mi NNE 15.0 mph 20.7 mph N/A   Scattered Clouds
4:53 PM 75.2 °F 51.8 °F 44% 29.98 in 10.0 mi NNE 12.7 mph 19.6 mph N/A   Scattered Clouds
5:15 PM 75.2 °F 51.8 °F 44% 29.98 in 10.0 mi NE 12.7 mph 17.3 mph N/A   Clear
5:35 PM 75.2 °F 51.8 °F 44% 29.99 in 10.0 mi NNE 16.1 mph 21.9 mph N/A   Clear
5:52 PM 75.2 °F 51.8 °F 44% 29.99 in 10.0 mi NNE 11.5 mph - N/A   Clear
6:15 PM 73.4 °F 51.8 °F 47% 29.99 in 10.0 mi NNE 10.4 mph 16.1 mph N/A   Clear
6:35 PM 73.4 °F 51.8 °F 47% 29.99 in 10.0 mi NE 9.2 mph - N/A   Clear
6:53 PM 73.4 °F 51.8 °F 47% 29.99 in 10.0 mi NE 5.8 mph - N/A   Clear
7:14 PM 71.6 °F 51.8 °F 50% 30.00 in 10.0 mi NE 9.2 mph - N/A   Clear
7:35 PM 71.6 °F 50.0 °F 46% 29.99 in 10.0 mi ENE 9.2 mph - N/A   Clear
7:52 PM 71.6 °F 50.0 °F 46% 30.00 in 10.0 mi ENE 9.2 mph - N/A   Clear
8:15 PM 69.8 °F 50.0 °F 49% 30.00 in 10.0 mi ENE 4.6 mph - N/A   Clear
8:35 PM 68.0 °F 51.8 °F 56% 30.01 in 10.0 mi ENE 3.5 mph - N/A   Clear
8:52 PM 66.2 °F 51.8 °F 60% 30.01 in 10.0 mi ENE 4.6 mph - N/A   Clear
9:14 PM 64.4 °F 51.8 °F 64% 30.02 in 7.0 mi ENE 5.8 mph - N/A   Clear
9:35 PM 64.4 °F 51.8 °F 64% 30.02 in 7.0 mi ENE 4.6 mph - N/A   Clear
9:53 PM 62.6 °F 51.8 °F 68% 30.02 in 7.0 mi ENE 4.6 mph - N/A   Clear
10:15 PM 62.6 °F 51.8 °F 68% 30.03 in 7.0 mi Calm Calm - N/A   Clear
10:34 PM 60.8 °F 51.8 °F 72% 30.04 in 7.0 mi Calm Calm - N/A   Clear
10:53 PM 57.2 °F 51.8 °F 82% 30.04 in 7.0 mi Calm Calm - N/A   Clear
11:15 PM 57.2 °F 51.8 °F 82% 30.04 in 7.0 mi Calm Calm - N/A   Clear
11:35 PM 57.2 °F 51.8 °F 82% 30.05 in 7.0 mi Calm Calm - N/A   Clear
11:52 PM 55.4 °F 51.8 °F 88% 30.05 in 7.0 mi Calm Calm - N/A   Clear